Petersburg, AK

3:19 AM AKST on February 09, 2016 (GMT -0900)
Johnson Petersburg | | Change Station
CLOSE
Current Station
Airport
Location: Petersburg,
Elevation: 0 ft
Nearby Weather Stations

Elev 0 ft 56.82 °N, 132.97 °W | Updated 3 minutes ago

Overcast
Overcast
45 °F
Feels Like 45 °F
N
0
Wind Variable Wind from North

Today
High -- | Low -- °F
--% Chance of Precip.
Yesterday
High -- | Low -- °F
Precip. -- in
Pressure 30.14 in
Visibility 10.0 miles
Clouds Overcast 11000 ft
Dew Point 41 °F
Humidity 87%
Rainfall 0.00 in
Snow Depth Not available.
7:35 AM 4:40 PM
New Moon, 1% visible
METAR PAPG 091216Z 00000KT 10SM OVC110 07/05 A3014 RMK AO1
Pressure 30.14 in
Visibility 10.0 miles
Clouds Overcast 11000 ft
Dew Point 41 °F
Humidity 87%
Rainfall 0.00 in
Snow Depth Not available.
7:35 AM 4:40 PM
New Moon, 1% visible
METAR PAPG 091216Z 00000KT 10SM OVC110 07/05 A3014 RMK AO1

10-Day Weather Forecast

Almanac

Astronomy

Feb. 09, 2016 Rise Set
Actual Time
Civil Twilight
Nautical Twilight
Astronomical Twilight
Moon
Length of Visible Light
Length of Day
Tomorrow will be .
, % of the Moon is Illuminated

Today's Extremes

State Highs State Lows

Community

WunderPhotos

Upload Photos

1,891,588 photos uploaded!

WunderBlog® & News

Nearby

Air Quality

  Air Quality AQ Index Pollutant
Not available.

Snow Depth

Station Depth Elevation

Earthquake Activity

City Distance Mag. Time & Date
Minimum magnitude displayed is 2.5.

Coastal Water Temperatures

Place Temperature

Stations

Nearby Weather Stations

Station Location Temp. Windchill Dew Point Humidity Wind Precip. Elev Updated Type
                   

Watches & Warnings

There are currently no watches in effect.